This demonstration page uses our WeatherBlox Daily Observations layout. Learn more.

Hourly Observations for January 27, 2018

Temp ( °F °C ) Dew Point ( °F °C ) Humidity (%) Winds ( mph kmh ) Pressure ( in mb ) Visibility ( mi km ) Precip ( " mm )
12:15 am 00:15 Clear 31 -0.3 25 -3.7 78 78 W 8 13 30.27 1025 10 16.0934 0 0
12:35 am 00:35 Clear 32 -0.2 25 -4 76 76 W 9 15 30.27 1025 10 16.0934 0 0
12:55 am 00:55 Clear 30 -1 24 -4.4 78 78 W 9 15 30.27 1025 10 16.0934 0 0
1:15 am 01:15 Clear 30 -1.2 24 -4.6 78 78 W 9 15 30.27 1025 10 16.0934 0 0
1:35 am 01:35 Clear 30 -1 24 -4.5 77 77 W 9 15 30.27 1025 10 16.0934 0 0
1:55 am 01:55 Clear 29 -1.6 24 -4.5 81 81 W 10 17 30.27 1025 10 16.0934 0 0
2:15 am 02:15 Clear 28 -2.1 24 -4.7 83 83 W 12 19 30.3 1026 10 16.0934 0 0
2:35 am 02:35 Clear 28 -2.1 23 -5 81 81 W 10 17 30.3 1026 10 16.0934 0 0
2:55 am 02:55 Clear 28 -2 23 -5 80 80 W 12 19 30.27 1025 10 16.0934 0 0
3:15 am 03:15 Clear 28 -2.4 22 -5.3 81 81 W 6 9 30.3 1026 10 16.0934 0 0
3:35 am 03:35 Clear 26 -3.5 21 -6 83 83 W 8 13 30.33 1027 10 16.0934 0 0
3:55 am 03:55 Clear 26 -3.1 22 -5.7 82 82 W 9 15 30.3 1026 10 16.0934 0 0
4:15 am 04:15 Clear 27 -3 22 -5.8 81 81 W 10 17 30.33 1027 10 16.0934 0 0
4:35 am 04:35 Clear 26 -3.3 21 -6.1 81 81 W 9 15 30.33 1027 10 16.0934 0 0
4:55 am 04:55 Clear 25 -4 20 -6.7 82 82 W 7 11 30.33 1027 10 16.0934 0 0
5:15 am 05:15 Clear 25 -4.1 20 -6.6 83 83 W 7 11 30.33 1027 10 16.0934 0 0
5:35 am 05:35 Clear 24 -4.5 19 -7 83 83 WSW 7 11 30.33 1027 10 16.0934 0 0
5:55 am 05:55 Clear 25 -3.9 20 -6.8 81 81 W 8 13 30.33 1027 10 16.0934 0 0
6:15 am 06:15 Clear 26 -3.6 20 -6.9 78 78 W 8 13 30.33 1027 10 16.0934 0 0
6:35 am 06:35 Clear 26 -3.5 20 -6.7 79 79 W 9 15 30.33 1027 10 16.0934 0 0
6:55 am 06:55 Clear 26 -3.6 19 -7.1 77 77 W 12 19 30.33 1027 10 16.0934 0 0
7:15 am 07:15 Clear 25 -3.7 19 -7.3 76 76 W 13 20 30.33 1027 10 16.0934 0 0
7:35 am 07:35 Clear 25 -3.8 19 -7.5 76 76 WSW 12 19 30.36 1028 10 16.0934 0 0
7:55 am 07:55 Sunny 25 -3.7 19 -7.5 75 75 W 10 17 30.36 1028 10 16.0934 0 0
8:15 am 08:15 Sunny 25 -3.7 19 -7.5 75 75 W 12 19 30.36 1028 10 16.0934 0 0
8:35 am 08:35 Sunny 26 -3.5 19 -7.5 74 74 W 13 20 30.36 1028 10 16.0934 0 0
8:55 am 08:55 Sunny 26 -3.2 19 -7.2 74 74 W 14 22 30.36 1028 10 16.0934 0 0
9:15 am 09:15 Sunny 28 -2.2 20 -6.6 72 72 W 14 22 30.39 1029 10 16.0934 0 0
9:35 am 09:35 Sunny 30 -0.9 22 -5.7 70 70 W 15 24 30.36 1028 10 16.0934 0 0
9:55 am 09:55 Sunny 32 0 22 -5.4 67 67 W 14 22 30.36 1028 10 16.0934 0 0
10:15 am 10:15 Sunny 33 0.8 24 -4.6 68 68 W 12 19 30.36 1028 10 16.0934 0 0
10:35 am 10:35 Sunny 36 2.1 24 -4.4 62 62 WNW 12 19 30.33 1027 10 16.0934 0 0
10:55 am 10:55 Sunny 37 2.8 23 -4.8 58 58 WNW 12 19 30.36 1028 10 16.0934 0 0
11:15 am 11:15 Sunny 38 3.5 23 -4.8 55 55 NW 16 26 30.36 1028 10 16.0934 0 0
11:35 am 11:35 Sunny 39 3.7 24 -4.6 55 55 WNW 12 19 30.36 1028 10 16.0934 0 0
11:55 am 11:55 Sunny 40 4.2 24 -4.3 54 54 WNW 13 20 30.33 1027 10 16.0934 0 0
12:15 pm 12:15 Sunny 41 4.8 25 -4 53 53 WNW 9 15 30.33 1027 10 16.0934 0 0
12:35 pm 12:35 Sunny 42 5.6 24 -4.4 49 49 WNW 8 13 30.3 1026 10 16.0934 0 0
12:55 pm 12:55 Sunny 43 6.2 25 -4.1 48 48 WNW 13 20 30.3 1026 10 16.0934 0 0
1:15 pm 13:15 Sunny 43 6.2 24 -4.2 48 48 NW 12 19 30.3 1026 10 16.0934 0 0
1:35 pm 13:35 Sunny 44 6.5 24 -4.6 45 45 NW 12 19 30.3 1026 10 16.0934 0 0
1:55 pm 13:55 Sunny 44 6.5 22 -5.4 43 43 NW 12 19 30.27 1025 10 16.0934 0 0
2:15 pm 14:15 Sunny 44 6.5 23 -5.2 43 43 NW 12 19 30.27 1025 10 16.0934 0 0
2:35 pm 14:35 Sunny 44 6.5 22 -5.5 42 42 NW 12 19 30.27 1025 10 16.0934 0 0
2:55 pm 14:55 Sunny 44 6.7 22 -5.6 41 41 NW 10 17 30.27 1025 10 16.0934 0 0
3:15 pm 15:15 Sunny 44 6.6 22 -5.7 41 41 NW 9 15 30.27 1025 10 16.0934 0 0
3:35 pm 15:35 Sunny 43 6.2 22 -5.7 43 43 NW 8 13 30.27 1025 10 16.0934 0 0
3:55 pm 15:55 Sunny 43 6.1 21 -6 42 42 WNW 8 13 30.27 1025 10 16.0934 0 0
4:15 pm 16:15 Sunny 44 6.7 21 -6.1 40 40 WNW 6 9 30.27 1025 10 16.0934 0 0
4:35 pm 16:35 Sunny 44 6.4 22 -5.8 42 42 W 5 7 30.27 1025 10 16.0934 0 0
4:55 pm 16:55 Sunny 42 5.7 23 -5 46 46 W 5 7 30.3 1026 10 16.0934 0 0
5:15 pm 17:15 Sunny 39 3.9 22 -5.4 51 51 W 3 6 30.33 1027 10 16.0934 0 0
5:35 pm 17:35 Sunny 37 2.7 22 -5.5 55 55 Calm 30.33 1027 10 16.0934 0 0
5:55 pm 17:55 Clear 38 3.6 22 -5.3 53 53 Calm 30.33 1027 10 16.0934 0 0
6:15 pm 18:15 Clear 37 2.6 23 -5.1 57 57 Calm 30.33 1027 10 16.0934 0 0
6:35 pm 18:35 Clear 35 1.9 23 -5 61 61 SW 5 7 30.33 1027 10 16.0934 0 0
6:55 pm 18:55 Clear 34 1.2 23 -5 64 64 WSW 5 7 30.36 1028 10 16.0934 0 0
7:15 pm 19:15 Clear 34 1.1 24 -4.6 66 66 WSW 3 6 30.36 1028 10 16.0934 0 0
7:35 pm 19:35 Clear 35 1.6 24 -4.5 64 64 Calm 30.36 1028 10 16.0934 0 0
7:55 pm 19:55 Partly Cloudy 35 1.4 25 -4.1 67 67 Calm 30.36 1028 10 16.0934 0 0
8:15 pm 20:15 Mostly Cloudy 35 1.4 25 -4 68 68 Calm 30.36 1028 10 16.0934 0 0
8:35 pm 20:35 Partly Cloudy 35 1.5 25 -4 67 67 Calm 30.36 1028 10 16.0934 0 0
8:55 pm 20:55 Clear 34 1.3 24 -4.3 67 67 SW 3 6 30.36 1028 10 16.0934 0 0
9:15 pm 21:15 Clear 34 1.1 24 -4.2 68 68 SW 3 6 30.36 1028 10 16.0934 0 0
9:35 pm 21:35 Mostly Cloudy 34 1.1 24 -4.2 68 68 Calm 30.36 1028 10 16.0934 0 0
9:55 pm 21:55 Cloudy 33 0.8 24 -4.2 70 70 SW 5 7 30.36 1028 10 16.0934 0 0
10:15 pm 22:15 Mostly Cloudy 33 0.4 25 -4 73 73 Calm 30.36 1028 10 16.0934 0 0
10:35 pm 22:35 Mostly Cloudy 33 0.7 25 -4 71 71 SW 6 9 30.36 1028 10 16.0934 0 0
10:55 pm 22:55 Cloudy 34 1 25 -4.1 69 69 SW 5 7 30.36 1028 10 16.0934 0 0
11:15 pm 23:15 Cloudy 34 1 24 -4.5 67 67 SW 8 13 30.36 1028 10 16.0934 0 0
11:35 pm 23:35 Cloudy 33 0.6 24 -4.5 69 69 SW 7 11 30.36 1028 10 16.0934 0 0
11:55 pm 23:55 Mostly Cloudy 33 0.6 23 -5 66 66 SW 7 11 30.36 1028 10 16.0934 0 0

Powered by AerisWeather